Location: La Sioule Rivi�re
(46.3664°N, 3.3197°E)
Time: 13:08:02
(UTC+00:00)

COSMO-SKYMED 1 - Pass Details

Date: 29 October 2020
Orbit: 621 x 623 km, 97.9° (Epoch: 24 November)

Event Time Altitude Azimuth Distance (km) Brightness Sun altitude
Rises 18:37:22 0° 6° (N) 2,915 6.0 -21.4°
Reaches altitude 10° 18:39:41 10° 358° (N) 2,003 5.2 -21.8°
Maximum altitude 18:43:41 37° 291° (WNW) 971 4.0 -22.5°
Drops below altitude 10° 18:47:40 10° 224° (SW) 1,988 5.6 -23.2°
Sets 18:49:57 0° 216° (SW) 2,889 6.4 -23.6°
